AYN7141 UAUU-UAAA

Flight info

Callsign AYN7141
Flight time N/A
Altitude 37000
Route DOKUT3E DOKUT L998 TULPI W333 ETEDA ETEDA1R
Aircraft A20N/M-SDE2E3FGHIRWXY/LB1

Departure

Time 2026-05-06 15:28
Airport Kostanay International Airport (UAUU)

Arrival

Time N/A
Airport Almaty International Airport (UAAA)
Time Latitude Longitude Altitude Speed Heading
2026-05-06 15:24 53.22013 63.55269 593 ft 1 kts 338°
2026-05-06 15:25 53.22032 63.55255 592 ft 4 kts 332°
2026-05-06 15:25 53.22041 63.55202 592 ft 6 kts 253°
2026-05-06 15:25 53.22018 63.55140 592 ft 6 kts 219°
2026-05-06 15:25 53.21991 63.55057 591 ft 10 kts 247°
2026-05-06 15:26 53.21959 63.54933 590 ft 12 kts 247°
2026-05-06 15:26 53.21924 63.54800 590 ft 13 kts 245°
2026-05-06 15:26 53.21888 63.54656 590 ft 13 kts 247°
2026-05-06 15:26 53.21849 63.54507 590 ft 14 kts 246°
2026-05-06 15:27 53.21812 63.54361 593 ft 12 kts 248°
2026-05-06 15:27 53.21780 63.54222 593 ft 13 kts 258°
2026-05-06 15:27 53.21742 63.54186 593 ft 6 kts 160°
2026-05-06 15:27 53.21628 63.54268 593 ft 49 kts 157°
2026-05-06 15:28 53.21047 63.54682 590 ft 127 kts 158°
2026-05-06 15:28 53.20150 63.55304 1129 ft 137 kts 160°
2026-05-06 15:28 53.19322 63.55822 1902 ft 132 kts 152°
2026-05-06 15:28 53.18829 63.56437 2260 ft 141 kts 131°
2026-05-06 15:29 53.18096 63.58350 3066 ft 159 kts 122°
2026-05-06 15:29 53.17503 63.60030 3648 ft 176 kts 124°
2026-05-06 15:29 53.16793 63.61779 4190 ft 192 kts 127°
2026-05-06 15:29 53.15973 63.63718 4671 ft 215 kts 128°
2026-05-06 15:30 53.15081 63.65821 5230 ft 235 kts 128°
2026-05-06 15:30 53.14109 63.68121 5843 ft 253 kts 128°
2026-05-06 15:30 53.13056 63.70620 6485 ft 271 kts 128°
2026-05-06 15:30 53.11966 63.73213 7314 ft 280 kts 128°
2026-05-06 15:31 53.10861 63.75845 8219 ft 284 kts 128°
2026-05-06 15:31 53.09734 63.78527 9104 ft 289 kts 128°
2026-05-06 15:31 53.08577 63.81280 9930 ft 295 kts 128°
2026-05-06 15:32 53.06150 63.87032 11349 ft 314 kts 128°
2026-05-06 15:32 53.04886 63.90026 12166 ft 319 kts 128°
2026-05-06 15:32 53.03617 63.93027 13037 ft 321 kts 128°
2026-05-06 15:32 53.02346 63.96032 13870 ft 323 kts 128°
2026-05-06 15:33 53.01041 63.99117 14652 ft 327 kts 128°
2026-05-06 15:33 52.99742 64.02183 15373 ft 332 kts 128°
2026-05-06 15:33 52.98403 64.05338 16079 ft 337 kts 128°
2026-05-06 15:33 52.97055 64.08508 16762 ft 342 kts 128°
2026-05-06 15:34 52.95680 64.11736 17433 ft 347 kts 128°
2026-05-06 15:34 52.94275 64.15028 18099 ft 352 kts 128°
2026-05-06 15:34 52.92851 64.18370 18750 ft 357 kts 128°
2026-05-06 15:34 52.91420 64.21725 19385 ft 361 kts 128°
2026-05-06 15:35 52.89967 64.25131 20031 ft 365 kts 129°
2026-05-06 15:35 52.88507 64.28521 20670 ft 369 kts 129°
2026-05-06 15:35 52.87515 64.30814 21104 ft 371 kts 129°
2026-05-06 15:35 52.86008 64.34293 21732 ft 375 kts 130°
2026-05-06 15:36 52.83966 64.39016 22536 ft 382 kts 130°
2026-05-06 15:36 52.82431 64.42569 23144 ft 385 kts 130°
2026-05-06 15:36 52.81396 64.44964 23538 ft 388 kts 130°
2026-05-06 15:36 52.79286 64.49845 24311 ft 393 kts 131°
2026-05-06 15:37 52.77702 64.53503 24877 ft 397 kts 131°
2026-05-06 15:37 52.76079 64.57251 25454 ft 400 kts 131°
2026-05-06 15:37 52.74472 64.60950 25989 ft 404 kts 131°
2026-05-06 15:37 52.72822 64.64743 26516 ft 408 kts 131°
2026-05-06 15:38 52.71170 64.68551 27029 ft 411 kts 133°
2026-05-06 15:38 52.69520 64.72354 27550 ft 413 kts 133°
2026-05-06 15:38 52.67849 64.76195 28034 ft 416 kts 133°
2026-05-06 15:38 52.66158 64.80072 28519 ft 418 kts 133°
2026-05-06 15:39 52.64460 64.83956 28956 ft 420 kts 134°
2026-05-06 15:39 52.62733 64.87893 29331 ft 425 kts 134°
2026-05-06 15:39 52.61577 64.90527 29599 ft 426 kts 133°
2026-05-06 15:39 52.59275 64.95763 30144 ft 429 kts 134°
2026-05-06 15:40 52.57508 64.99777 30572 ft 431 kts 134°
2026-05-06 15:40 52.55765 65.03719 30972 ft 434 kts 134°
2026-05-06 15:40 52.53992 65.07725 31355 ft 435 kts 133°
2026-05-06 15:40 52.52225 65.11718 31726 ft 437 kts 133°
2026-05-06 15:41 52.50422 65.15790 32177 ft 437 kts 133°
2026-05-06 15:41 52.48647 65.19792 32659 ft 436 kts 133°
2026-05-06 15:41 52.46872 65.23788 33132 ft 434 kts 133°
2026-05-06 15:41 52.45678 65.26467 33390 ft 435 kts 133°
2026-05-06 15:42 52.43904 65.30447 33766 ft 436 kts 133°
2026-05-06 15:42 52.43306 65.31787 33886 ft 436 kts 133°